�������l�o���
Date,Time,MP-1(��Sv/h),MP-2(��Sv/h),MP-3(��Sv/h),MP-4(��Sv/h),MP-5(��Sv/h),MP-6(��Sv/h),MP-7(��Sv/h),MP-8(��Sv/h),����,����(m/s),���J
2023/06/21,00:00,0.541,0.812,0.491,0.975,0.704,0.326,0.570,0.535,��,3.7,��
2023/06/21,00:10,0.540,0.814,0.491,0.975,0.702,0.326,0.570,0.536,��,4.0,��
2023/06/21,00:20,0.541,0.813,0.491,0.973,0.703,0.325,0.570,0.534,��쐼,4.2,��
2023/06/21,00:30,0.541,0.812,0.492,0.975,0.703,0.325,0.570,0.535,��,3.9,��
2023/06/21,00:40,0.541,0.814,0.491,0.979,0.702,0.325,0.571,0.536,��,3.5,��
2023/06/21,00:50,0.543,0.811,0.491,0.975,0.702,0.325,0.571,0.535,��,4.2,��
2023/06/21,01:00,0.540,0.813,0.492,0.977,0.701,0.326,0.569,0.534,��,4.2,��
2023/06/21,01:10,0.543,0.812,0.492,0.976,0.704,0.325,0.571,0.535,��,4.3,��
2023/06/21,01:20,0.541,0.814,0.491,0.975,0.704,0.327,0.571,0.536,��쓌,2.3,��
2023/06/21,01:30,0.541,0.812,0.490,0.976,0.703,0.325,0.571,0.534,��쐼,1.7,��
2023/06/21,01:40,0.542,0.814,0.491,0.978,0.705,0.326,0.570,0.535,�쐼,2.0,��
2023/06/21,01:50,0.540,0.813,0.490,0.973,0.703,0.326,0.569,0.536,�쐼,1.5,��
2023/06/21,02:00,0.542,0.814,0.490,0.975,0.703,0.325,0.571,0.534,�쐼,1.2,��
2023/06/21,02:10,0.540,0.812,0.492,0.975,0.702,0.325,0.571,0.535,-,CALM,��
2023/06/21,02:20,0.541,0.813,0.491,0.977,0.704,0.325,0.571,0.536,�k,1.5,��
2023/06/21,02:30,0.541,0.812,0.492,0.975,0.701,0.325,0.572,0.534,�k�k��,0.9,��
2023/06/21,02:40,0.542,0.811,0.492,0.977,0.703,0.327,0.573,0.534,�k��,1.4,��
2023/06/21,02:50,0.540,0.812,0.490,0.976,0.702,0.326,0.573,0.536,�k�k��,1.4,��
2023/06/21,03:00,0.541,0.813,0.491,0.975,0.703,0.325,0.571,0.535,���k��,1.2,��
2023/06/21,03:10,0.540,0.812,0.491,0.977,0.703,0.324,0.571,0.535,�k�k��,1.4,��
2023/06/21,03:20,0.541,0.812,0.489,0.977,0.701,0.326,0.570,0.536,�k��,1.2,��
2023/06/21,03:30,0.542,0.812,0.491,0.976,0.704,0.325,0.571,0.536,���k��,1.5,��
2023/06/21,03:40,0.542,0.811,0.491,0.977,0.703,0.325,0.570,0.535,��,0.9,��
2023/06/21,03:50,0.541,0.812,0.490,0.975,0.703,0.327,0.571,0.535,���k��,1.2,��
2023/06/21,04:00,0.542,0.810,0.491,0.976,0.701,0.325,0.572,0.536,���쓌,1.5,��
2023/06/21,04:10,0.541,0.812,0.491,0.974,0.701,0.325,0.570,0.535,��,1.4,��
2023/06/21,04:20,0.540,0.810,0.489,0.975,0.704,0.325,0.571,0.534,���k��,0.9,��
2023/06/21,04:30,0.540,0.814,0.491,0.975,0.703,0.326,0.571,0.535,���k��,1.2,��
2023/06/21,04:40,0.539,0.812,0.491,0.976,0.702,0.325,0.571,0.535,���k��,1.9,��
2023/06/21,04:50,0.540,0.812,0.491,0.974,0.703,0.325,0.570,0.535,���k��,1.7,��
2023/06/21,05:00,0.539,0.811,0.493,0.974,0.704,0.326,0.572,0.534,�k�k��,0.9,��
2023/06/21,05:10,0.541,0.813,0.490,0.976,0.703,0.326,0.571,0.534,�k�k��,1.4,��
2023/06/21,05:20,0.539,0.810,0.491,0.975,0.703,0.325,0.571,0.536,�k�k��,2.0,��
2023/06/21,05:30,0.540,0.812,0.491,0.977,0.704,0.326,0.571,0.535,�k�k��,3.0,��
2023/06/21,05:40,0.541,0.812,0.493,0.975,0.703,0.325,0.572,0.535,�k�k��,3.6,��
2023/06/21,05:50,0.541,0.811,0.490,0.975,0.701,0.325,0.571,0.534,�k�k��,3.1,��
2023/06/21,06:00,0.541,0.812,0.490,0.976,0.703,0.324,0.572,0.536,�k��,2.9,��
2023/06/21,06:10,0.542,0.811,0.492,0.976,0.702,0.325,0.572,0.536,���k��,1.9,��
2023/06/21,06:20,0.543,0.809,0.491,0.974,0.705,0.325,0.571,0.535,���k��,1.5,��
2023/06/21,06:30,0.541,0.811,0.492,0.977,0.704,0.325,0.573,0.535,���쐼,0.9,��
2023/06/21,06:40,0.541,0.811,0.491,0.975,0.703,0.325,0.570,0.535,��쐼,0.6,��
2023/06/21,06:50,0.542,0.812,0.492,0.973,0.702,0.327,0.571,0.535,���k��,0.6,��
2023/06/21,07:00,0.543,0.812,0.493,0.973,0.704,0.324,0.571,0.535,�쓌,0.6,��
2023/06/21,07:10,0.541,0.814,0.491,0.977,0.703,0.325,0.572,0.536,-,CALM,��
2023/06/21,07:20,0.544,0.812,0.491,0.976,0.702,0.324,0.571,0.535,-,CALM,��
2023/06/21,07:30,0.541,0.812,0.491,0.975,0.701,0.324,0.572,0.536,��쐼,0.6,��
2023/06/21,07:40,0.542,0.811,0.491,0.975,0.702,0.324,0.570,0.536,��,1.7,��
2023/06/21,07:50,0.540,0.809,0.492,0.974,0.703,0.323,0.570,0.536,���쓌,0.9,��
2023/06/21,08:00,0.539,0.810,0.494,0.977,0.702,0.324,0.570,0.534,�쓌,2.6,��
2023/06/21,08:10,0.540,0.809,0.489,0.975,0.703,0.324,0.569,0.533,���쓌,2.9,��
2023/06/21,08:20,0.539,0.811,0.492,0.977,0.704,0.325,0.569,0.534,��쓌,2.6,��
2023/06/21,08:30,0.540,0.811,0.491,0.976,0.702,0.323,0.570,0.534,���쓌,2.0,��
2023/06/21,08:40,0.540,0.811,0.492,0.975,0.702,0.324,0.569,0.534,���쓌,1.9,��
2023/06/21,08:50,0.540,0.809,0.490,0.975,0.703,0.324,0.570,0.533,���쓌,1.9,��
2023/06/21,09:00,0.541,0.812,0.491,0.975,0.703,0.324,0.570,0.534,���쓌,2.9,��
2023/06/21,09:10,0.540,0.809,0.491,0.977,0.703,0.324,0.569,0.534,�쓌,3.5,��
2023/06/21,09:20,0.542,0.812,0.490,0.977,0.702,0.324,0.569,0.535,���쓌,3.3,��
2023/06/21,09:30,0.541,0.811,0.490,0.977,0.702,0.324,0.569,0.535,�쓌,4.7,��
2023/06/21,09:40,0.542,0.812,0.489,0.975,0.701,0.323,0.569,0.532,��쓌,5.7,��
2023/06/21,09:50,0.542,0.811,0.489,0.974,0.701,0.324,0.569,0.533,��쓌,6.4,��
2023/06/21,10:00,0.542,0.812,0.489,0.974,0.701,0.325,0.568,0.535,��쓌,7.6,��
2023/06/21,10:10,0.542,0.812,0.489,0.978,0.703,0.324,0.570,0.535,��쓌,8.8,��
2023/06/21,10:20,0.542,0.812,0.490,0.976,0.702,0.324,0.570,0.535,��쓌,8.6,��
2023/06/21,10:30,0.541,0.809,0.489,0.978,0.704,0.325,0.570,0.533,��쓌,8.4,��
2023/06/21,10:40,0.545,0.812,0.490,0.976,0.703,0.324,0.568,0.533,��쓌,7.9,��
2023/06/21,10:50,0.542,0.809,0.492,0.977,0.702,0.323,0.571,0.534,��쓌,8.0,��
2023/06/21,11:00,0.541,0.813,0.490,0.975,0.704,0.324,0.569,0.535,��쓌,6.9,��
2023/06/21,11:10,0.543,0.813,0.490,0.976,0.706,0.324,0.569,0.534,��쓌,7.6,��
2023/06/21,11:20,0.543,0.812,0.490,0.974,0.704,0.325,0.568,0.534,��쓌,7.9,��
2023/06/21,11:30,0.542,0.811,0.488,0.975,0.705,0.324,0.569,0.533,��쓌,8.1,��
2023/06/21,11:40,0.543,0.812,0.489,0.974,0.705,0.324,0.569,0.535,��쓌,7.7,��
2023/06/21,11:50,0.543,0.814,0.489,0.975,0.705,0.324,0.570,0.535,��쓌,7.9,��
2023/06/21,12:00,0.541,0.813,0.490,0.973,0.704,0.324,0.569,0.534,��쓌,7.9,��
2023/06/21,12:10,0.545,0.813,0.490,0.977,0.706,0.323,0.568,0.534,��쓌,7.6,��
2023/06/21,12:20,0.544,0.815,0.491,0.975,0.705,0.325,0.569,0.534,��쓌,7.9,��
2023/06/21,12:30,0.543,0.814,0.490,0.974,0.704,0.325,0.567,0.534,��쓌,8.7,��
2023/06/21,12:40,0.544,0.815,0.490,0.974,0.706,0.324,0.569,0.535,��쓌,8.8,��
2023/06/21,12:50,0.542,0.814,0.490,0.976,0.707,0.324,0.569,0.534,��쓌,8.1,��
2023/06/21,13:00,0.545,0.814,0.490,0.976,0.706,0.323,0.568,0.534,��쓌,7.0,��
2023/06/21,13:10,0.543,0.814,0.491,0.977,0.707,0.324,0.570,0.534,��쓌,7.8,��
2023/06/21,13:20,0.542,0.813,0.490,0.976,0.707,0.324,0.568,0.535,��쓌,8.0,��
2023/06/21,13:30,0.543,0.812,0.490,0.976,0.705,0.325,0.569,0.535,��쓌,7.3,��
2023/06/21,13:40,0.542,0.813,0.491,0.977,0.706,0.323,0.568,0.535,��쓌,7.8,��
2023/06/21,13:50,0.542,0.814,0.491,0.976,0.707,0.325,0.567,0.535,��쓌,8.0,��
2023/06/21,14:00,0.542,0.813,0.492,0.976,0.708,0.324,0.568,0.535,��쓌,7.1,��
2023/06/21,14:10,0.542,0.815,0.491,0.978,0.707,0.323,0.569,0.535,��쓌,7.2,��
2023/06/21,14:20,0.544,0.814,0.492,0.977,0.707,0.326,0.567,0.534,��쓌,7.2,��
2023/06/21,14:30,0.542,0.812,0.492,0.977,0.707,0.324,0.567,0.535,��쓌,6.3,��
2023/06/21,14:40,0.542,0.812,0.491,0.978,0.708,0.324,0.567,0.535,��쓌,8.6,��
2023/06/21,14:50,0.542,0.813,0.491,0.979,0.708,0.325,0.568,0.535,��쓌,7.0,��
2023/06/21,15:00,0.542,0.812,0.491,0.976,0.708,0.325,0.567,0.536,��쓌,8.1,��
2023/06/21,15:10,0.541,0.815,0.491,0.977,0.709,0.325,0.569,0.535,��쓌,7.7,��
2023/06/21,15:20,0.543,0.814,0.490,0.975,0.708,0.324,0.568,0.536,��쓌,7.6,��
2023/06/21,15:30,0.541,0.813,0.491,0.979,0.708,0.325,0.567,0.533,��쓌,8.2,��
2023/06/21,15:40,0.541,0.815,0.490,0.977,0.709,0.325,0.567,0.534,��쓌,6.3,��
2023/06/21,15:50,0.542,0.815,0.490,0.978,0.709,0.325,0.567,0.535,��쓌,7.6,��
2023/06/21,16:00,0.541,0.814,0.491,0.978,0.708,0.326,0.567,0.534,��쓌,7.1,��
2023/06/21,16:10,0.541,0.817,0.491,0.979,0.708,0.325,0.567,0.534,��쓌,7.8,��
2023/06/21,16:20,0.542,0.815,0.489,0.978,0.708,0.324,0.568,0.535,��쓌,7.4,��
2023/06/21,16:30,0.542,0.813,0.490,0.978,0.707,0.326,0.567,0.536,��쓌,7.6,��
2023/06/21,16:40,0.541,0.816,0.491,0.979,0.708,0.324,0.568,0.534,��쓌,8.2,��
2023/06/21,16:50,0.542,0.815,0.489,0.982,0.707,0.324,0.568,0.535,��쓌,7.9,��
2023/06/21,17:00,0.543,0.815,0.493,0.984,0.709,0.325,0.568,0.534,��쓌,7.7,��
2023/06/21,17:10,0.541,0.815,0.492,0.980,0.707,0.323,0.567,0.536,��쓌,8.6,��
2023/06/21,17:20,0.542,0.816,0.490,0.980,0.706,0.324,0.567,0.535,��쓌,8.6,��
2023/06/21,17:30,0.543,0.816,0.491,0.978,0.707,0.324,0.568,0.536,��쓌,8.3,��
2023/06/21,17:40,0.542,0.816,0.491,0.980,0.710,0.325,0.566,0.537,��쓌,8.5,��
2023/06/21,17:50,0.542,0.817,0.491,0.978,0.708,0.324,0.568,0.536,��쓌,9.0,��
2023/06/21,18:00,0.542,0.816,0.490,0.979,0.708,0.325,0.567,0.538,��쓌,8.0,��
2023/06/21,18:10,0.540,0.816,0.491,0.980,0.707,0.324,0.566,0.538,��쓌,6.9,��
2023/06/21,18:20,0.542,0.816,0.491,0.982,0.708,0.324,0.568,0.538,��쓌,7.2,��
2023/06/21,18:30,0.539,0.815,0.488,0.979,0.709,0.324,0.569,0.537,��쓌,8.0,��
2023/06/21,18:40,0.542,0.816,0.490,0.982,0.708,0.324,0.570,0.537,��,8.3,��
2023/06/21,18:50,0.541,0.814,0.489,0.983,0.707,0.326,0.568,0.536,��,7.3,��
2023/06/21,19:00,0.542,0.815,0.491,0.980,0.709,0.323,0.569,0.537,��,7.4,��
2023/06/21,19:10,0.540,0.817,0.492,0.981,0.709,0.324,0.569,0.538,��쓌,7.0,��
2023/06/21,19:20,0.541,0.816,0.490,0.982,0.710,0.325,0.570,0.538,��쓌,8.0,��
2023/06/21,19:30,0.542,0.819,0.492,0.982,0.707,0.326,0.570,0.538,��쓌,6.5,��
2023/06/21,19:40,0.539,0.816,0.491,0.983,0.709,0.325,0.570,0.536,��,6.1,��
2023/06/21,19:50,0.541,0.819,0.493,0.984,0.708,0.327,0.570,0.538,��,8.2,��
2023/06/21,20:00,0.540,0.817,0.490,0.984,0.708,0.325,0.569,0.537,��,7.7,��
2023/06/21,20:10,0.542,0.817,0.491,0.982,0.709,0.326,0.570,0.537,��,8.7,��
2023/06/21,20:20,0.541,0.818,0.491,0.983,0.708,0.326,0.570,0.537,��,7.6,��
2023/06/21,20:30,0.542,0.817,0.493,0.982,0.709,0.326,0.569,0.537,��,6.6,��
2023/06/21,20:40,0.541,0.818,0.491,0.984,0.710,0.324,0.570,0.538,��,6.5,��
2023/06/21,20:50,0.541,0.818,0.493,0.985,0.710,0.324,0.571,0.538,��,6.9,��
2023/06/21,21:00,0.542,0.820,0.492,0.983,0.710,0.326,0.569,0.538,��,7.0,��
2023/06/21,21:10,0.541,0.817,0.493,0.981,0.712,0.325,0.571,0.537,��,6.6,��
2023/06/21,21:20,0.541,0.819,0.492,0.983,0.708,0.324,0.571,0.537,��,7.5,��
2023/06/21,21:30,0.544,0.818,0.492,0.983,0.711,0.326,0.571,0.539,��,6.9,��
2023/06/21,21:40,0.542,0.820,0.493,0.981,0.709,0.325,0.571,0.536,��,7.5,��
2023/06/21,21:50,0.541,0.819,0.491,0.979,0.710,0.324,0.570,0.538,��,6.6,��
2023/06/21,22:00,0.541,0.818,0.492,0.984,0.710,0.325,0.570,0.537,��,6.0,��
2023/06/21,22:10,0.540,0.819,0.493,0.982,0.711,0.325,0.570,0.537,��,5.9,��
2023/06/21,22:20,0.541,0.818,0.493,0.982,0.712,0.324,0.569,0.537,��,6.1,��
2023/06/21,22:30,0.543,0.820,0.492,0.982,0.711,0.324,0.569,0.537,��,6.4,��
2023/06/21,22:40,0.539,0.819,0.494,0.984,0.711,0.326,0.571,0.537,��,6.7,��
2023/06/21,22:50,0.542,0.820,0.493,0.983,0.709,0.324,0.572,0.538,��,6.7,��
2023/06/21,23:00,0.541,0.817,0.493,0.984,0.711,0.326,0.570,0.537,��,6.0,��
2023/06/21,23:10,0.539,0.819,0.494,0.982,0.711,0.327,0.570,0.537,��,6.0,��
2023/06/21,23:20,0.544,0.819,0.493,0.981,0.710,0.326,0.570,0.536,��,6.9,��
2023/06/21,23:30,0.542,0.820,0.494,0.984,0.710,0.326,0.571,0.538,��,7.3,��
2023/06/21,23:40,0.544,0.819,0.492,0.982,0.711,0.326,0.570,0.538,��,6.8,��
2023/06/21,23:50,0.543,0.819,0.492,0.982,0.710,0.327,0.569,0.538,��,6.8,��
